Meteo pe oră la Bolshoe Kukushkino

Astăzi, 10 Mai, Luni

Timp Temperatura Precipitaţii Vânt Presiune Umiditate
00:00 +4°C° 0 mm 1 m/s 746 mmHg 67%
01:00 +3°C° 0 mm 1 m/s 746 mmHg 67%
02:00 +3°C° 0 mm 1 m/s 747 mmHg 68%
03:00 +3°C° 0 mm 1 m/s 747 mmHg 68%
04:00 +4°C° 0 mm 1 m/s 747 mmHg 69%
05:00 +4°C° 0 mm 1 m/s 748 mmHg 69%
06:00 +5°C° 0 mm 2 m/s 748 mmHg 62%
07:00 +8°C° 0 mm 2 m/s 748 mmHg 55%
08:00 +10°C° 0 mm 2 m/s 748 mmHg 48%
09:00 +12°C° 0 mm 2 m/s 748 mmHg 44%
10:00 +12°C° 0 mm 3 m/s 748 mmHg 40%
11:00 +14°C° 0 mm 3 m/s 748 mmHg 37%
12:00 +14°C° 0 mm 3 m/s 748 mmHg 37%
13:00 +16°C° 0 mm 2 m/s 748 mmHg 37%
14:00 +17°C° 0 mm 2 m/s 748 mmHg 37%
15:00 +17°C° 0 mm 2 m/s 748 mmHg 39%
16:00 +16°C° 0 mm 2 m/s 748 mmHg 41%
17:00 +16°C° 0 mm 2 m/s 748 mmHg 44%
18:00 +14°C° 0 mm 2 m/s 748 mmHg 52%
19:00 +12°C° 0 mm 2 m/s 748 mmHg 60%
20:00 +9°C° 0 mm 2 m/s 748 mmHg 68%
21:00 +8°C° 0 mm 2 m/s 749 mmHg 70%
22:00 +9°C° 0 mm 1 m/s 749 mmHg 73%
23:00 +8°C° 0 mm 1 m/s 749 mmHg 75%

Mâine, 11 Mai, Marţi

Timp Temperatura Precipitaţii Vânt Presiune Umiditate
00:00 +7°C° 0 mm 1 m/s 749 mmHg 76%
01:00 +7°C° 0 mm 1 m/s 749 mmHg 76%
02:00 +7°C° 0 mm 1 m/s 749 mmHg 77%
03:00 +7°C° 0 mm 1 m/s 750 mmHg 76%
04:00 +7°C° 0 mm 1 m/s 750 mmHg 75%
05:00 +7°C° 0 mm 1 m/s 750 mmHg 74%
06:00 +10°C° 0 mm 1 m/s 750 mmHg 65%
07:00 +12°C° 0 mm 2 m/s 750 mmHg 57%
08:00 +14°C° 0 mm 2 m/s 750 mmHg 49%
09:00 +15°C° 0 mm 2 m/s 750 mmHg 45%
10:00 +17°C° 0 mm 2 m/s 750 mmHg 41%
11:00 +18°C° 0 mm 3 m/s 749 mmHg 37%
12:00 +19°C° 0 mm 3 m/s 749 mmHg 37%
13:00 +19°C° 0 mm 3 m/s 749 mmHg 36%
14:00 +20°C° 0 mm 3 m/s 749 mmHg 35%
15:00 +19°C° 0 mm 3 m/s 748 mmHg 39%
16:00 +19°C° 0 mm 3 m/s 748 mmHg 42%
17:00 +19°C° 0 mm 3 m/s 748 mmHg 45%
18:00 +16°C° 0 mm 3 m/s 748 mmHg 54%
19:00 +14°C° 0 mm 2 m/s 748 mmHg 63%
20:00 +12°C° 0 mm 2 m/s 748 mmHg 72%
21:00 +10°C° 0 mm 2 m/s 748 mmHg 75%
22:00 +9°C° 0 mm 2 m/s 748 mmHg 77%
23:00 +9°C° 0 mm 2 m/s 748 mmHg 80%

Poimâine, 12 Mai, Miercuri

Timp Temperatura Precipitaţii Vânt Presiune Umiditate
00:00 +9°C° 0 mm 2 m/s 748 mmHg 84%
01:00 +8°C° 0 mm 2 m/s 748 mmHg 88%
02:00 +8°C° 0 mm 2 m/s 748 mmHg 92%
03:00 +9°C° 0 mm 2 m/s 748 mmHg 93%
04:00 +9°C° 0 mm 2 m/s 748 mmHg 94%
05:00 +10°C° 0 mm 1 m/s 748 mmHg 94%
06:00 +12°C° 0 mm 2 m/s 748 mmHg 88%
07:00 +14°C° 0 mm 2 m/s 748 mmHg 82%
08:00 +16°C° 0 mm 2 m/s 748 mmHg 75%
09:00 +17°C° 0 mm 2 m/s 747 mmHg 72%
10:00 +18°C° 0 mm 3 m/s 747 mmHg 68%
11:00 +19°C° 0 mm 3 m/s 747 mmHg 64%
12:00 +20°C° 0.3 mm 4 m/s 746 mmHg 63%
13:00 +21°C° 0.3 mm 4 m/s 745 mmHg 62%
14:00 +21°C° 0.3 mm 5 m/s 745 mmHg 60%
15:00 +20°C° 0.5 mm 5 m/s 744 mmHg 65%
16:00 +19°C° 0.5 mm 5 m/s 743 mmHg 70%
17:00 +17°C° 0.5 mm 5 m/s 743 mmHg 75%
18:00 +16°C° 0.7 mm 5 m/s 742 mmHg 80%
19:00 +15°C° 0.7 mm 5 m/s 742 mmHg 84%
20:00 +14°C° 0.7 mm 5 m/s 741 mmHg 88%
21:00 +12°C° 0.3 mm 5 m/s 742 mmHg 89%
22:00 +10°C° 0.3 mm 5 m/s 742 mmHg 89%
23:00 +8°C° 0.3 mm 6 m/s 742 mmHg 89%

13 Mai, Joi

Timp Temperatura Precipitaţii Vânt Presiune Umiditate
00:00 +7°C° 0 mm 5 m/s 743 mmHg 91%
01:00 +6°C° 0 mm 4 m/s 743 mmHg 93%
02:00 +5°C° 0 mm 3 m/s 743 mmHg 95%
03:00 +5°C° 0 mm 3 m/s 743 mmHg 94%
04:00 +5°C° 0 mm 3 m/s 743 mmHg 94%
05:00 +5°C° 0 mm 3 m/s 743 mmHg 94%
06:00 +7°C° 0.1 mm 3 m/s 742 mmHg 91%
07:00 +8°C° 0.1 mm 3 m/s 742 mmHg 89%
08:00 +8°C° 0.1 mm 4 m/s 742 mmHg 87%
09:00 +8°C° 0.5 mm 4 m/s 742 mmHg 86%
10:00 +10°C° 0.5 mm 4 m/s 742 mmHg 86%
11:00 +11°C° 0.5 mm 4 m/s 741 mmHg 86%
12:00 +12°C° 0.1 mm 4 m/s 741 mmHg 76%
13:00 +14°C° 0.1 mm 4 m/s 741 mmHg 67%
14:00 +15°C° 0.1 mm 5 m/s 741 mmHg 58%
15:00 +15°C° 0 mm 4 m/s 741 mmHg 59%
16:00 +15°C° 0 mm 4 m/s 741 mmHg 60%
17:00 +16°C° 0 mm 3 m/s 741 mmHg 61%
18:00 +13°C° 0 mm 3 m/s 741 mmHg 69%
19:00 +12°C° 0 mm 2 m/s 741 mmHg 77%
20:00 +10°C° 0 mm 2 m/s 741 mmHg 85%
21:00 +9°C° 0 mm 2 m/s 741 mmHg 88%
22:00 +8°C° 0 mm 2 m/s 741 mmHg 90%
23:00 +8°C° 0 mm 2 m/s 741 mmHg 93%

14 Mai, Vineri

Timp Temperatura Precipitaţii Vânt Presiune Umiditate
00:00 +7°C° 0 mm 2 m/s 741 mmHg 93%
01:00 +7°C° 0 mm 2 m/s 741 mmHg 94%
02:00 +7°C° 0 mm 2 m/s 741 mmHg 95%
03:00 +7°C° 0 mm 2 m/s 741 mmHg 94%
04:00 +8°C° 0 mm 2 m/s 741 mmHg 92%
05:00 +8°C° 0 mm 2 m/s 741 mmHg 91%
06:00 +10°C° 0 mm 3 m/s 741 mmHg 86%
07:00 +12°C° 0 mm 3 m/s 740 mmHg 80%
08:00 +14°C° 0 mm 4 m/s 740 mmHg 75%
09:00 +17°C° 0.1 mm 4 m/s 740 mmHg 70%
10:00 +17°C° 0.1 mm 5 m/s 739 mmHg 65%
11:00 +20°C° 0.1 mm 5 m/s 739 mmHg 61%
12:00 +20°C° 0.5 mm 5 m/s 739 mmHg 67%
13:00 +19°C° 0.5 mm 4 m/s 738 mmHg 74%
14:00 +18°C° 0.5 mm 4 m/s 738 mmHg 80%
15:00 +18°C° 1.1 mm 4 m/s 737 mmHg 81%
16:00 +17°C° 1.1 mm 5 m/s 737 mmHg 81%
17:00 +17°C° 1.1 mm 5 m/s 736 mmHg 82%
18:00 +17°C° 1.4 mm 4 m/s 736 mmHg 86%
19:00 +16°C° 1.4 mm 3 m/s 735 mmHg 90%
20:00 +15°C° 1.4 mm 2 m/s 735 mmHg 95%
21:00 +15°C° 0.1 mm 2 m/s 735 mmHg 96%
22:00 +14°C° 0.1 mm 2 m/s 735 mmHg 97%
23:00 +13°C° 0.1 mm 2 m/s 735 mmHg 98%

15 Mai, Sâmbătă

Timp Temperatura Precipitaţii Vânt Presiune Umiditate
00:00 +13°C° 0 mm 2 m/s 736 mmHg 98%
01:00 +12°C° 0 mm 2 m/s 736 mmHg 98%
02:00 +12°C° 0 mm 2 m/s 736 mmHg 98%
03:00 +12°C° 0 mm 2 m/s 736 mmHg 98%
04:00 +12°C° 0 mm 1 m/s 736 mmHg 98%
05:00 +12°C° 0 mm 1 m/s 737 mmHg 97%
06:00 +13°C° 0 mm 2 m/s 737 mmHg 93%
07:00 +14°C° 0 mm 2 m/s 737 mmHg 88%
08:00 +16°C° 0 mm 2 m/s 737 mmHg 83%
09:00 +17°C° 0 mm 2 m/s 737 mmHg 76%
10:00 +18°C° 0 mm 2 m/s 738 mmHg 68%
11:00 +19°C° 0 mm 2 m/s 738 mmHg 61%
12:00 +20°C° 0 mm 2 m/s 738 mmHg 58%
13:00 +21°C° 0 mm 2 m/s 738 mmHg 54%
14:00 +21°C° 0 mm 2 m/s 737 mmHg 50%
15:00 +22°C° 0 mm 1 m/s 737 mmHg 56%
16:00 +21°C° 0 mm 1 m/s 737 mmHg 62%
17:00 +20°C° 0 mm 1 m/s 737 mmHg 68%
18:00 +19°C° 0 mm 1 m/s 737 mmHg 73%
19:00 +16°C° 0 mm 1 m/s 736 mmHg 78%
20:00 +15°C° 0 mm 1 m/s 736 mmHg 83%
21:00 +14°C° 0 mm 1 m/s 736 mmHg 85%
22:00 +14°C° 0 mm 1 m/s 736 mmHg 86%
23:00 +13°C° 0 mm 1 m/s 736 mmHg 88%
Arată mai mult

Formular de consimțământ

Meteoprog și furnizorii noștri de servicii pot stoca și accesa date personale, precum cookies, identificatori de dispozitiv sau alte tehnologii similare pe dispozitivul dumneavoastră și procesa astfel de date pentru a personaliza conținutul și reclamele, dar și pentru a oferi caracteristici de social media și pentru a analiza traficul.

  • Stocarea și/sau accesarea informațiilor pe dispozitivul dumneavoastră

    Cookies, identificatori de dispozitiv sau alte informații pot fi stocate sau accesate pe dispozitiv în scopurile indicate mai sus.

  • Reclame și conținut personalizat, evaluarea reclamelor și a conținutului, informații despre audiențe și dezvoltarea produselor

    Reclamele și conținutul pot fi personalizate pe baza unui profil. Pot fi adăugate date suplimentare pentru a personaliza mai bine reclamele și conținutul. Performanța reclamelor și conținutului poate fi măsurată. Pot fi obținute informații despre utilizatorii care au văzut reclamele și conținutul. Aceste date pot fi utilizate pentru a dezvolta sau îmbunătăți experiența utilizatorilor, sistemele și software-ul.

Dând clic pe ‘Sunt de acord’, permiteți utilizarea cookie-urilor menționate, a identificatorilor de dispozitiv, balizelor web sau altor tehnologii similare. Setările pot fi modificate din browser-ul dispozitivului dumneavoastră.

În anumite scopuri, interesele legitime pot prima asupra consimțământului. Puteți citi mai multe informații în acest sens în Politica privind Confidențialitatea Datelor și Cookie.